Change the Weather History Date:

Wednesday, July 24, 2013

  Actual Average Record
Temperature  
Mean Temperature 90 °F 87 °F  
Max Temperature 101 °F 98 °F 105 °F (1980)
Min Temperature 79 °F 77 °F 68 °F (1952)
Degree Days  
Heating Degree Days 0 0  
Month to date heating degree days 0 0  
Since 1 June heating degree days 0 0  
Since 1 July heating degree days 0 0  
Cooling Degree Days 25 22  
Month to date cooling degree days 517 518  
Year to date cooling degree days 2490 2401  
Since 1 June cooling degree days 1194 1146  
Growing Degree Days 40 (Base 50)    
Moisture  
Dew Point 72 °F    
Average Humidity 61    
Maximum Humidity 91    
Minimum Humidity 31    
Precipitation  
Precipitation 0.00 in 0.05 in 0.55 in (1949)
Month to date precipitation 1.16 1.66  
Year to date precipitation 5.46 11.02  
Sea Level Pressure  
Sea Level Pressure 29.91 in    
Wind  
Wind Speed 14 mph (SSE)    
Max Wind Speed 25 mph    
Max Gust Speed 31 mph    
Visibility 10 miles    
Events      
T = Trace of Precipitation, MM = Missing Value Source: NWS Daily Summary

Daily Weather History Graph

Daily Weather History Graph

Search for Another Location

Airport or City:

Trip Planner

Search our weather history database for the weather conditions in past years. The results will help you decide how hot, cold, wet, or windy it might be!

Date:

Astronomy

Jul. 24, 2013 Rise Set
Actual Time 6:54 AM CDT 8:23 PM CDT
Civil Twilight 6:29 AM CDT 8:49 PM CDT
Nautical Twilight 5:59 AM CDT 9:19 PM CDT
Astronomical Twilight 5:28 AM CDT 9:50 PM CDT
Moon 9:53 PM CDT (7/24) 8:57 AM CDT (7/24)
Length of Visible Light 14h 19m
Length of Day
13h 29m
Waning Gibbous, 94% of the Moon is Illuminated
Jul 24
Waning Gibbous
Jul 29
Last Quarter
Aug 6
New
Aug 14
First Quarter
Aug 20
Full

Hourly Weather History & Observations

Time (CDT) Temp. Heat Index Dew Point Humidity Pressure Visibility Wind Dir Wind Speed Gust Speed Precip Events Conditions
12:14 AM 82.4 °F 89.5 °F 75.2 °F 79% 29.94 in 10.0 mi SSE 11.5 mph - N/A   Mostly Cloudy
12:35 AM 82.4 °F 89.5 °F 75.2 °F 79% 29.94 in 10.0 mi SSE 11.5 mph - N/A   Scattered Clouds
12:53 AM 82.0 °F 89.4 °F 75.9 °F 82% 29.93 in 10.0 mi SSE 11.5 mph - N/A   Clear
1:53 AM 81.0 °F 87.9 °F 77.0 °F 88% 29.94 in 10.0 mi SSE 11.5 mph - N/A   Mostly Cloudy
2:12 AM 82.4 °F 90.9 °F 77.0 °F 84% 29.94 in 10.0 mi SSE 10.4 mph - N/A   Overcast
2:53 AM 82.0 °F 90.2 °F 77.0 °F 85% 29.94 in 10.0 mi SSE 6.9 mph - N/A   Overcast
3:30 AM 80.6 °F 87.1 °F 77.0 °F 89% 29.92 in 10.0 mi SSE 12.7 mph 18.4 mph N/A   Scattered Clouds
3:53 AM 81.0 °F 87.9 °F 77.0 °F 88% 29.91 in 10.0 mi SSE 10.4 mph - N/A   Partly Cloudy
4:53 AM 80.1 °F 85.4 °F 75.9 °F 87% 29.90 in 10.0 mi SSE 10.4 mph - N/A   Partly Cloudy
5:53 AM 79.0 °F - 75.9 °F 90% 29.91 in 10.0 mi SSE 10.4 mph - N/A   Clear
6:53 AM 79.0 °F - 75.9 °F 90% 29.93 in 10.0 mi SSE 8.1 mph - N/A   Clear
7:53 AM 80.1 °F 85.4 °F 75.9 °F 87% 29.94 in 10.0 mi SSE 9.2 mph - N/A   Clear
8:53 AM 82.0 °F 88.6 °F 75.0 °F 79% 29.95 in 10.0 mi SSE 12.7 mph - N/A   Clear
9:53 AM 86.0 °F 93.0 °F 73.0 °F 65% 29.95 in 10.0 mi SSE 13.8 mph 21.9 mph N/A   Partly Cloudy
10:53 AM 90.0 °F 95.4 °F 70.0 °F 52% 29.94 in 10.0 mi SSE 18.4 mph 25.3 mph N/A   Clear
11:53 AM 91.9 °F 96.9 °F 69.1 °F 47% 29.93 in 10.0 mi SSE 16.1 mph 25.3 mph N/A   Clear
12:53 PM 96.1 °F 99.9 °F 66.9 °F 38% 29.93 in 10.0 mi SE 20.7 mph 25.3 mph N/A   Clear
1:53 PM 97.0 °F 99.9 °F 64.9 °F 35% 29.91 in 10.0 mi SE 12.7 mph 24.2 mph N/A   Clear
2:53 PM 100.0 °F 103.6 °F 64.9 °F 32% 29.88 in 10.0 mi SE 16.1 mph 25.3 mph N/A   Clear
3:53 PM 99.0 °F 102.9 °F 66.0 °F 34% 29.86 in 10.0 mi ESE 20.7 mph 24.2 mph N/A   Clear
4:53 PM 99.0 °F 102.3 °F 64.9 °F 33% 29.86 in 10.0 mi SE 16.1 mph 28.8 mph N/A   Clear
5:53 PM 96.1 °F 97.3 °F 63.0 °F 33% 29.86 in 10.0 mi SSE 16.1 mph 27.6 mph N/A   Clear
6:53 PM 93.9 °F 98.6 °F 68.0 °F 43% 29.85 in 10.0 mi SE 20.7 mph 25.3 mph N/A   Clear
7:53 PM 89.1 °F 94.1 °F 70.0 °F 53% 29.86 in 10.0 mi SE 15.0 mph 23.0 mph N/A   Clear
8:53 PM 86.0 °F 92.2 °F 72.0 °F 63% 29.89 in 10.0 mi SE 16.1 mph - N/A   Clear
9:53 PM 82.9 °F 88.0 °F 72.0 °F 69% 29.89 in 10.0 mi SE 16.1 mph - N/A   Clear
10:53 PM 82.0 °F 87.4 °F 73.0 °F 74% 29.92 in 10.0 mi SE 13.8 mph - N/A   Clear
11:53 PM 81.0 °F 85.8 °F 73.0 °F 77% 29.93 in 10.0 mi SE 12.7 mph - N/A   Clear